This is the latest recevied weather packets stored in our database for station/object GJ7DNI-13. If no packets are shown the sender has not sent any weather packets the latest 10 day(s).
| Time | Temp. | Humidity | Pressure | Rain* | Wind** | Luminosity | Snow |
|---|---|---|---|---|---|---|---|
| 1777384513 | 15.56° C | 59% | 1018.2 hPa | 0 mm | - | 390 W/m² | - |
| 1777384213 | 15° C | 58% | 1018.3 hPa | 0 mm | - | 318 W/m² | - |
| 1777383913 | 15° C | 58% | 1018.3 hPa | 0 mm | - | 255 W/m² | - |
| 1777383613 | 15° C | 57% | 1018.3 hPa | 0 mm | - | 246 W/m² | - |
| 1777383313 | 15° C | 57% | 1018.4 hPa | 0 mm | - | 253 W/m² | - |
| 1777383013 | 15.56° C | 56% | 1018.4 hPa | 0 mm | - | 276 W/m² | - |
| 1777382713 | 15.56° C | 55% | 1018.3 hPa | 0 mm | - | 334 W/m² | - |
| 1777382413 | 15.56° C | 55% | 1018.4 hPa | 0 mm | - | 362 W/m² | - |
| 1777382113 | 15° C | 54% | 1018.4 hPa | 0 mm | - | 341 W/m² | - |
| 1777381813 | 15° C | 55% | 1018.5 hPa | 0 mm | - | 345 W/m² | - |
| 1777381513 | 15° C | 54% | 1018.5 hPa | 0 mm | - | 271 W/m² | - |
| 1777381213 | 15° C | 54% | 1018.6 hPa | 0 mm | - | 258 W/m² | - |
| 1777380913 | 15° C | 55% | 1018.6 hPa | 0 mm | - | 232 W/m² | - |
| 1777380613 | 15° C | 58% | 1018.7 hPa | 0 mm | - | 214 W/m² | - |
| 1777380313 | 15° C | 59% | 1018.7 hPa | 0 mm | - | 227 W/m² | - |
| 1777380013 | 15.56° C | 61% | 1018.7 hPa | 0 mm | - | 278 W/m² | - |
| 1777379713 | 15° C | 63% | 1018.7 hPa | 0 mm | - | 684 W/m² | - |
| 1777379413 | 14.44° C | 62% | 1018.7 hPa | 0 mm | - | 253 W/m² | - |
| 1777379113 | 14.44° C | 64% | 1018.7 hPa | 0 mm | - | 239 W/m² | - |
| 1777378813 | 14.44° C | 64% | 1018.7 hPa | 0 mm | - | 239 W/m² | - |
| 1777378513 | 14.44° C | 64% | 1018.9 hPa | 0 mm | - | 253 W/m² | - |
| 1777378213 | 14.44° C | 65% | 1018.9 hPa | 0 mm | - | 294 W/m² | - |
| 1777377913 | 14.44° C | 65% | 1018.9 hPa | 0 mm | - | 232 W/m² | - |
| 1777377613 | 14.44° C | 63% | 1019 hPa | 0 mm | - | 192 W/m² | - |
| 1777377313 | 15° C | 61% | 1019.1 hPa | 0 mm | - | 211 W/m² | - |
* Rain latest hour (hover to see other rain measurements)
** Current wind speed in m/s (hover to see current wind gust speed)